OpenBCM V1.13 (Linux)

Packet Radio Mailbox

DB0FHN

[JN59NK Nuernberg]

 Login: GUEST





  
CX2SA  > KEPS     19.11.04 09:44l 95 Lines 2474 Bytes #999 (0) @ AMSAT
BID : ORB04323.M
Read: GUEST
Subj: Orbital Elements  04323.MISC
Path: DB0FHN<DB0MRW<OK0PPL<DB0RES<ON0AR<7M3TJZ<EA5AKC<CX2SA
Sent: 041119/0736Z @:CX2SA.LAV.URY.SA #:40537 [Minas] FBB7.00e $:ORB04323.M
From: CX2SA@CX2SA.LAV.URY.SA
To  : KEPS@AMSAT


HR AMSAT ORBITAL ELEMENTS FOR MANNED AND MISCELLANEOUS SATELLITES
FROM WA5QGD FORT WORTH,TX November 18, 2004
SEND SUBSCRIBE/UNSUBSCRIBE TO majordomo@amsat.org ONLY
BID: ORB04323.M
TO ALL RADIO AMATEURS BT

Satellite: HUBBLE
Catalog number: 20580
Epoch time:      04322.88442508
Element set:     208
Inclination:       28.4667 deg
RA of node:       205.3197 deg
Eccentricity:    0.0003958
Arg of perigee:   189.3242 deg
Mean anomaly:     170.7234 deg
Mean motion:   14.99440118 rev/day
Decay rate:      1.020e-05 rev/day^2
Epoch rev:           59849
Checksum:              300

Satellite: UARS
Catalog number: 21701
Epoch time:      04323.79447568
Element set:     313
Inclination:       56.9823 deg
RA of node:       322.8319 deg
Eccentricity:    0.0004169
Arg of perigee:    81.6478 deg
Mean anomaly:     278.5020 deg
Mean motion:   15.03683314 rev/day
Decay rate:       1.14e-06 rev/day^2
Epoch rev:           72184
Checksum:              290

Satellite: PO-34
Catalog number: 25520
Epoch time:      04322.21654850
Element set:      54
Inclination:       28.4621 deg
RA of node:       289.0722 deg
Eccentricity:    0.0005499
Arg of perigee:    83.1732 deg
Mean anomaly:     276.9485 deg
Mean motion:   15.15902489 rev/day
Decay rate:      1.238e-05 rev/day^2
Epoch rev:           33438
Checksum:              305

Satellite: ISS
Catalog number: 25544
Epoch time:      04323.97911443
Element set:     174
Inclination:       51.6385 deg
RA of node:       255.8107 deg
Eccentricity:    0.0004678
Arg of perigee:    20.6857 deg
Mean anomaly:      69.3622 deg
Mean motion:   15.70233946 rev/day
Decay rate:     1.7104e-04 rev/day^2
Epoch rev:           34263
Checksum:              297

Satellite: OO-38
Catalog number: 26063
Epoch time:      04322.54760959
Element set:     212
Inclination:      100.2247 deg
RA of node:       137.6369 deg
Eccentricity:    0.0036577
Arg of perigee:   290.9408 deg
Mean anomaly:      68.7860 deg
Mean motion:   14.35682606 rev/day
Decay rate:        3.6e-07 rev/day^2
Epoch rev:           25192
Checksum:              315

Satellite: NO-45
Catalog number: 26932
Epoch time:      04323.26807010
Element set:     895
Inclination:       67.0612 deg
RA of node:        50.6499 deg
Eccentricity:    0.0007149
Arg of perigee:   285.0961 deg
Mean anomaly:      74.9354 deg
Mean motion:   14.29455044 rev/day
Decay rate:       1.03e-06 rev/day^2
Epoch rev:           16365
Checksum:              301



Read previous mail | Read next mail


 24.06.2026 09:10:39lGo back Go up